Flag for U.S.A. Weather past 2 weeks in Tuba City, Arizona, U.S.A.

Now
88 °F

Partly sunny.


Feels Like: 84 °F
Forecast: 71 / 96 °F
Wind: 7 mph from Northeast

Location: Grand Canyon National Park Airport

Current Time: Jul 23, 2014 at 2:28:59 PM

Latest Report: Jul 23, 2014 at 1:54 PM


Visibility: 10 mi

Pressure: 30.03 "Hg

Humidity: 16%

Dew point: 37 °F

Location of Tuba CityLocation

Historic Weather in Tuba City — Graph

°F

Tuba City temperature yesterday

Maximum temperature yesterday: 86 °F (at 5:54 PM)
Minimum temperature yesterday: 46 °F (at 3:54 AM)
Average temperature yesterday: 65 °F

Past Weeks' High & Low Weather Summary

 TemperatureHumidityPressure
High89 °F (Jul 13, 2:54 PM)97% (Jul 10, 12:54 AM)30.40 "Hg (Jul 10, 12:54 AM)
Low42 °F (Jul 21, 6:54 AM)14% (Jul 21, 3:54 PM)29.82 "Hg (Jul 17, 8:54 PM)
Average68 °F52%29.99 "Hg
* Reported Jul 8 12:54 PM — Jul 23 12:54 PM, Tuba City, Weather by CustomWeather, © 2014

Note: Actual official high and low records may vary slightly from our data, if they occured in-between our weather recording intervals... More about our weather records

Advertising

Tuba City weather history for previous 24 hours

 ConditionsComfort  
Time TempWeatherWind HumidityBarometerVisibility
12:54 PM
Jul 23
87 °FScattered clouds.N/A17%30.03 "Hg10 mi
11:54 AM88 °FOvercast.5 mph17%30.01 "Hg10 mi
10:54 AM85 °FSunny.10 mph17%30.03 "Hg10 mi
9:54 AM82 °FSunny.5 mph18%30.02 "Hg9 mi
9:03 AM77 °FPassing clouds.No wind23%30.40 "Hg2 mi
8:54 AM77 °FScattered clouds.No wind24%30.03 "Hg1 mi
7:54 AM67 °FSunny.3 mph42%30.04 "Hg7 mi
6:54 AM56 °FSunny.No wind60%30.06 "Hg8 mi
4:54 AM57 °FClear.No wind55%30.03 "Hg5 mi
3:54 AM53 °FClear.No wind64%30.05 "Hg3 mi
3:00 AM57 °FPassing clouds.No wind55%30.38 "Hg3 mi
10:54 PM
Jul 22
69 °FPassing clouds.No wind36%30.01 "Hg10 mi
9:54 PM73 °FClear.No wind32%29.99 "Hg10 mi
8:54 PM76 °FClear.No wind26%30.00 "Hg10 mi
7:54 PM83 °FSunny.6 mph19%30.03 "Hg10 mi
6:54 PM86 °FSunny.8 mph16%30.06 "Hg10 mi
5:54 PM86 °FScattered clouds.7 mph17%30.07 "Hg10 mi
Weather by CustomWeather, © 2014

See weather overviewHow to use our weather pages